www.pogodaiklimat.ru

Погода и климат >> Архив погоды >> Нигер >> Досо


ПОГОДА в Досо

  • Прогноз погоды в Досо
  • Монитор погоды в Досо

АРХИВ ПОГОДЫ в Досо

Время (UTC), дата Ветер
(напр.,м/с)
 
Видим.   Явления Облачность Т
(С)
Тd
(С)
f
(%)
Тe
(С)
Тes
(С)
Комфортность P
(гПа)
Po
(гПа)
Тmin
(С)
Tmax
(С)
R
(мм)
R24
(мм)
S
(см)
15 20.06 З 6 10 км 9/0
[Cs]
+36.7 +23.0 45 +46 +50 опасность
перегрева
1008.2 983.0
18 20.06 штиль 0 10 км 9/1 1200 м
[Cu hum Cs]
+34.0 +23.2 53 +44 +44 опасность
перегрева
1008.5 983.2 +35.4
21 20.06 З 6 10 км 9/0
[Cs]
+33.0 +23.0 56 +43 +43 опасность
перегрева
1010.0 984.8
00 21.06 З 6 10 км 9/0
[Cs]
+31.4 +23.8 64 +43 +43 опасность
перегрева
1010.8 985.6
03 21.06 З 4 10 км 9/0
[Ac lent Cs]
+29.6 +23.4 69 +40 +40 очень
душно
1010.8 985.6
06 21.06 ЮЗ 4 10 км 9/0
[Ac lent Cs]
+28.8 +23.6 74 +39 +40 очень
душно
1011.0 985.7 +28.8
09 21.06 ЮЗ 4 10 км 9/0
[Ac lent Cs]
+31.0 +23.0 62 +41 +47 опасность
перегрева
1012.3 987.0
12 21.06 ЮЗ 6 10 км 9/3 1200 м
[Cu hum Ac lent Cs]
+35.0 +22.9 50 +45 +48 опасность
перегрева
1011.8 986.6
15 21.06 З 6 10 км 8/1 1200 м
[Cu hum Cs]
+36.0 +22.4 46 +45 +48 опасность
перегрева
1009.4 984.5
18 21.06 З 4 10 км 8/1 1200 м
[Cu hum Cs]
+35.4 +22.8 48 +45 +45 опасность
перегрева
1009.2 984.0 +37.2
21 21.06 Ю 6 10 км 8/0
[Ac lent Cs]
+33.2 +23.6 57 +44 +44 опасность
перегрева
1011.0 985.7
03 22.06 З 4 10 км зарница 9/1 1500 м
[Cb cap Ac lent Cs]
+29.8 +22.9 67 +40 +40 очень
душно
1011.2 986.0
06 22.06 В 6 10 км гроза, ливневой дождь 9/1 1500 м
[Cb cap Ac As Ci sp]
+22.2 +18.8 81 +28 +28 душно 1018.2 992.5 +22.0 7
09 22.06 Ю 4 10 км в посл. час гроза 9/0
[Ac As Ci sp]
+24.0 +21.3 85 +30 +34 очень
душно
1013.0 987.4
12 22.06 Ю 6 10 км {гроза} 9/0
[Ac lent Cs]
+31.6 +21.0 53 +39 +44 очень
душно
1009.8 984.5 10
15 22.06 Ю 6 10 км 9/0
[Ac lent Cs]
+32.0 +20.2 50 +39 +42 очень
душно
1009.7 984.4
18 22.06 штиль 0 10 км 9/0
[Cs]
+30.8 +22.6 62 +40 +40 очень
душно
1011.5 985.8 +32.8 10
21 22.06 штиль 0 10 км 9/0
[Cs]
+28.0 +23.7 77 +38 +38 очень
душно
1010.2 984.5
03 23.06 З 6 10 км 9/0
[Cs]
+26.0 +23.7 87 +35 +35 очень
душно
1010.3 984.5
06 23.06 штиль 0 10 км 9/0
[Ac lent Cs]
+25.0 +23.8 93 +34 +34 очень
душно
1011.2 985.0 +25.0 10
09 23.06 Ю 6 10 км 9/0
[Cs]
+28.0 +23.3 76 +38 +42 очень
душно
1011.3 985.7
12 23.06 ЮЗ 6 15 км 9/1 1200 м
[Cu hum Cs]
+31.6 +22.8 60 +42 +48 опасность
перегрева
1010.6 985.1
15 23.06 З 4 15 км 9/0
[Cs]
+34.5 +23.1 52 +45 +51 опасность
перегрева
1008.4 983.0
18 23.06 штиль 0 10 км 9/0
[Cs]
+33.5 +24.4 59 +46 +46 опасность
перегрева
1007.8 982.4 +35.0
21 23.06 З 4 10 км 9/0
[Cs]
+31.0 +23.9 66 +43 +43 опасность
перегрева
1009.5 984.1
03 24.06 З 6 10 км 9/0
[Cs]
+28.0 +24.4 81 +39 +39 очень
душно
1009.1 983.8
06 24.06 З 4 10 км 9/0
[Cs]
+27.2 +24.4 85 +38 +38 очень
душно
1008.8 983.5 +27.1
09 24.06 З 6 10 км 9/0
[Cs]
+31.0 +24.7 69 +44 +48 опасность
перегрева
1009.1 983.8
12 24.06 З 4 10 км 9/1 1200 м
[Cu hum Cs]
+34.6 +24.0 54 +46 +57 опасность
перегрева
1009.0 983.8
15 24.06 З 4 10 км 9/3 1200 м
[Cu hum Cs]
+36.0 +22.6 46 +45 +49 опасность
перегрева
1007.7 982.5
18 24.06 штиль 0 10 км 9/0
[Cs]
+35.0 +22.8 49 +45 +45 опасность
перегрева
1006.4 981.2 +37.1
21 24.06 Ю 6 10 км 9/0
[Cs]
+29.2 +22.2 66 +38 +38 очень
душно
1008.4 983.0
03 25.06 З 6 10 км 9/0
[Cs]
+26.6 +20.1 68 +33 +33 очень
душно
1008.7 983.4
06 25.06 Ю 4 10 км 9/0
[Cs]
+25.4 +20.9 76 +32 +32 очень
душно
1010.1 984.7 +25.4
09 25.06 Ю 6 10 км 9/0
[Cs]
+27.7 +20.7 66 +35 +39 очень
душно
1011.1 985.5
12 25.06 З 4 10 км 9/0
[Cs]
+32.0 +19.6 48 +38 +50 очень
душно
1010.5 985.1
15 25.06 ЮЗ 4 10 км 9/0
[Cs]
+35.0 +21.4 45 +43 +48 опасность
перегрева
1009.6 984.3
18 25.06 Ю 4 10 км 9/0
[Cs]
+33.7 +21.0 47 +41 +41 опасность
перегрева
1009.8 984.4 +34.8
21 25.06 З 4 10 км 9/0
[Cs]
+31.4 +22.2 58 +40 +40 очень
душно
1009.4 984.0
03 26.06 З 6 10 км зарница 9/1 1500 м
[Cb cap Ac lent Cs]
+28.0 +22.6 73 +37 +37 очень
душно
1010.0 985.7
06 26.06 Ю 8 8000 м гроза без осадков 9/1 1500 м
[Cb cap Ac As Ci sp]
+24.4 +21.4 83 +31 +31 очень
душно
1011.8 986.3 +24.0
09 26.06 Ю 10 10 км {гроза} 9/1 1500 м
[Cb cap Ac As Ci sp]
+23.4 +21.3 88 +31 +32 очень
душно
1013.8 988.1
12 26.06 З 6 10 км {гроза} 9/0
[Ac As Ci sp]
+25.6 +19.5 69 +31 +35 очень
душно
1012.8 987.1
15 26.06 З 6 10 км 9/0
[Ac lent Cs]
+31.2 +20.6 53 +38 +41 очень
душно
1009.9 984.5
18 26.06 штиль 0 10 км 9/0
[Ac lent Cs]
+30.5 +20.2 54 +37 +37 очень
душно
1010.3 984.7 +31.6
21 26.06 СЗ 6 10 км 9/0
[Ac lent Cs]
+27.2 +23.2 79 +37 +37 очень
душно
1011.3 985.5
03 27.06 СЗ 6 10 км 9/0
[Ac lent Cs]
+25.8 +23.2 86 +35 +35 очень
душно
1011.2 985.6
06 27.06 Ю 4 10 км 9/0
[Ac lent Cs]
+25.7 +23.0 85 +34 +34 очень
душно
1012.8 987.1 +25.6
09 27.06 З 6 10 км 9/0
[Cs]
+29.6 +22.0 64 +38 +42 очень
душно
1013.0 987.4
12 27.06 З 4 15 км 9/3 1200 м
[Cu hum Cs]
+33.0 +23.6 58 +44 +53 опасность
перегрева
1011.8 986.3

 

Местоположение метеостанции Досо (Нигер): широта 13.01 долгота 3.20 высота над уровнем моря 213 м.

В архиве по умолчанию представлена погода в Досо за последнюю неделю. Архивные данные за месяц целиком и за предыдущие месяцы, начиная с января 2011 года, Вы можете получить, выбрав интересующий диапазон дат из раскрывающегося списка и нажав кнопку "Ввод!".


*Определитесь, кто Вы:
робот инопланетянин человек

Внимание! Время в таблицах - всемирное. Для получения местного времени необходимо прибавить поправку, которая равна 1 ч.

Смотрите также архив погоды в соседних городах и на ближайших метеорологических станциях:

Погода в Ниамее (Нигер) (123 км)
Погода в Гае (Нигер) (129 км)
Погода в Канди (Бенин) (211 км)
Погода в Тиллабери (Нигер) (231 км)
Погода в Вирнин-Конни (Нигер) (239 км)
Погода в Йелве (Нигерия) (291 км)
Погода в Тахве (Нигер) (305 км)
Погода в Фада-Нгурме (Буркина-Фасо) (326 км)
Погода в Натитингу (Бенин) (359 км)
Погода в Дори (Буркина-Фасо) (367 км)

Пояснения к столбцам:

Ветер - указаны скорость ветра в м/с - средняя за 10 мин, порывы в срок и между сроками (в фигурных скобках) и направление, откуда дует ветер: С - северный, СВ - северо-восточный, В - восточный, ЮВ - юго-восточный, Ю - южный, ЮЗ - юго-западный, З - западный, СЗ - северо-западный.
Видимость - горизонтальная дальность видимости в метрах или километрах. При видимости от 1 до 10 км при отсутствии осадков обычно наблюдается дымка, при ухудшении видимости до 1 км и менее - туман. В сухую погоду видимость может ухудшаться дымом, пылью или мглою.
Явления - указаны атмосферные явления, наблюдавшиеся в срок или в последний час перед сроком; фигурными скобками обозначены явления, наблюдавшиеся между сроками (за 1-3 часа до срока); квадратными скобками обозначены град или гололедные отложения с указанием их диаметра в мм.
Облачность - указаны через наклонную черту общая и нижняя облачность в баллах и высота нижней границы облаков в метрах; квадратными скобками обозначены формы облаков: Ci - перистые, Cs - перисто-слоистые, Cc - перисто-кучевые, Ac - высококучевые, As - высокослоистые, Sc - слоисто-кучевые, Ns - слоисто-дождевые, Cu - кучевые, Cb - кучево-дождевые. Подробнее классификацию облаков см. в Атласе облаков (PDF).
T - Температура воздуха - температура, измеренная на высоте 2 м над землей.
Td - Температура точки росы - температура, при понижении до которой содержащийся в воздухе водяной пар достигнет насыщения.
f - Относительная влажность воздуха - влажноcть воздуха, измеренная на высоте 2 м над землей.
Te - Эффективная температура - температура, которую ощущает одетый по сезону человек в тени. Характеристика душности погоды. При расчете учитывается влияние влажности воздуха и скорости ветра на теплоощущения человека.
Tes - Эффективная температура на солнце - температура, которую ощущает человек, с поправкой на солнечный нагрев. Характеристика знойности погоды. Зависит от высоты солнца над горизонтом, облачности и скорости ветра. Ночью, в пасмурную погоду, а также при ветре 12 м/с и более поправка равна нулю.
P - Атмосферное давление - приведенное к уровню моря атмосферное давление.
Po - Атмосферное давление - измеренное на уровне метеостанции атмосферное давление.
Tmin - Минимальная температура - минимум температуры воздуха на высоте 2 м над землей.
Tmax - Максимальная температура - максимум температуры воздуха на высоте 2 м над землей.
R - Количество осадков - Количество выпавших осадков за период времени, мм. При наведении курсора мыши на число - период времени, за который выпало указанное количество осадков.
R24 - Количество осадков - Количество выпавших осадков за 24 часа, мм.
S - Снежный покров - Высота снежного покрова, см. При наведении курсора мыши на число - состояние снежного покрова и степень покрытия местности в баллах.